Home   Weather   Beersheba   Past weeks

Flag for Israel Past Weather in Beersheba, Israel — Yesterday and Last 2 Weeks

Now
68 °F

Passing clouds.


Feels Like: 68 °F
Forecast: 48 / 79 °F
Wind: 14 mph from West

Location: Ben Gurion International Airport

Current Time: Apr 24, 2017 at 4:29:03 pm

Latest Report: Apr 24, 2017 at 3:50 pm


Visibility: N/A

Pressure: 30.07 "Hg

Humidity: 46%

Dew Point: 46 °F

Location of BeershebaLocation

Past Weather in Beersheba — Graph

°F

Beersheba Temperature Yesterday

Maximum temperature yesterday: 72 °F (at 12:20 am)
Minimum temperature yesterday: 63 °F (at 9:20 pm)
Average temperature yesterday: 67 °F

High & Low Weather Summary for the Past Weeks

 TemperatureHumidityPressure
High102 °F (Apr 22, 12:20 pm)88% (Apr 14, 3:20 am)30.12 "Hg (Apr 14, 3:20 am)
Low54 °F (Apr 10, 5:50 am)8% (Apr 22, 11:20 am)29.65 "Hg (Apr 13, 1:50 pm)
Average69 °F55%29.95 "Hg
* Reported Apr 9 2:20 pm — Apr 24 2:50 pm, Beersheba, Weather by CustomWeather, © 2017

Note: Actual official high and low records may vary slightly from our data, if they occured in-between our weather recording intervals... More about our weather records

Advertising

Beersheba Weather History for the Previous 24 Hours

Scroll right to see more
 ConditionsComfort  
Time TempWeatherWind HumidityBarometerVisibility
2:50 pm
Mon, Apr 24
70 °FScattered clouds.12 mph46%30.07 "HgN/A
2:20 pm68 °FScattered clouds.12 mph49%30.07 "HgN/A
1:50 pm68 °FScattered clouds.12 mph49%30.09 "HgN/A
1:20 pm68 °FPassing clouds.13 mph49%30.09 "HgN/A
12:50 pm70 °FPassing clouds.12 mph38%30.09 "HgN/A
12:20 pm70 °FPassing clouds.8 mph40%30.09 "HgN/A
11:50 am66 °FPassing clouds.13 mph43%30.09 "HgN/A
11:20 am68 °FScattered clouds.9 mph40%30.09 "HgN/A
10:50 am68 °FScattered clouds.9 mph43%30.09 "HgN/A
10:20 am68 °FScattered clouds.8 mph40%30.09 "HgN/A
9:50 am68 °FScattered clouds.8 mph40%30.09 "HgN/A
9:20 am66 °FScattered clouds.9 mph43%30.09 "HgN/A
8:50 am64 °FPartly sunny.7 mph46%30.09 "HgN/A
8:20 am64 °FPartly sunny.8 mph46%30.09 "HgN/A
7:50 am64 °FPartly sunny.6 mph46%30.09 "HgN/A
7:20 am63 °FBroken clouds.8 mph52%30.07 "HgN/A
6:50 am63 °FBroken clouds.10 mph56%30.07 "HgN/A
6:20 am63 °FBroken clouds.9 mph56%30.07 "HgN/A
5:50 am63 °FPassing clouds.5 mph56%30.07 "HgN/A
5:20 am63 °FPassing clouds.6 mph56%30.07 "HgN/A
4:50 am63 °FPassing clouds.7 mph52%30.07 "HgN/A
4:20 am63 °FPassing clouds.6 mph52%30.07 "HgN/A
3:50 am63 °FPassing clouds.5 mph56%30.07 "HgN/A
3:20 am63 °FPassing clouds.7 mph52%30.07 "HgN/A
2:50 am63 °FPassing clouds.8 mph49%30.07 "HgN/A
2:20 am63 °FClear.6 mph52%30.07 "Hg10 mi
1:50 am61 °FClear.7 mph55%30.07 "Hg10 mi
1:20 am63 °FClear.9 mph52%30.07 "Hg10 mi
12:50 am63 °FClear.9 mph52%30.09 "Hg10 mi
12:20 am63 °FPassing clouds.9 mph52%30.09 "HgN/A
11:50 pm
Sun, Apr 23
63 °FPassing clouds.8 mph52%30.09 "HgN/A
11:20 pm63 °FPassing clouds.12 mph52%30.09 "HgN/A
10:50 pm63 °FPassing clouds.8 mph52%30.09 "HgN/A
10:20 pm63 °FPassing clouds.8 mph52%30.09 "HgN/A
9:50 pm63 °FPassing clouds.8 mph56%30.09 "HgN/A
9:20 pm63 °FPassing clouds.10 mph56%30.07 "HgN/A
8:50 pm64 °FPassing clouds.10 mph52%30.07 "HgN/A
8:20 pm64 °FPassing clouds.12 mph56%30.07 "HgN/A
7:50 pm64 °FPassing clouds.12 mph56%30.07 "HgN/A
7:20 pm64 °FPassing clouds.15 mph52%30.04 "HgN/A
6:50 pm64 °FScattered clouds.13 mph56%30.04 "HgN/A
6:20 pm66 °FScattered clouds.14 mph46%30.04 "HgN/A
5:50 pm66 °FScattered clouds.16 mph49%30.04 "HgN/A
5:20 pm66 °FScattered clouds.14 mph49%30.01 "HgN/A
4:50 pm66 °FPassing clouds.15 mph52%30.01 "HgN/A
4:20 pm68 °FPassing clouds.17 mph49%30.01 "HgN/A
Weather by CustomWeather, © 2017

See weather overviewHow to use our weather pages